StationID,Date,MaxTemp,MinTemp,Precipitation,Snowfall,SnowDepth
"USC00507465","1927-06-01",69.98,26.06,0.00,0.00,
"USC00507465","1927-06-02",64.94,28.04,0.00,0.00,
"USC00507465","1927-06-03",64.94,35.96,89.00,0.00,
"USC00507465","1927-06-04",69.08,28.04,0.00,0.00,
"USC00507465","1927-06-05",69.08,28.94,0.00,0.00,
"USC00507465","1927-06-06",68.00,37.94,0.00,0.00,
"USC00507465","1927-06-07",69.08,42.08,25.00,0.00,
"USC00507465","1927-06-08",66.92,44.06,0.00,0.00,
"USC00507465","1927-06-09",69.98,37.94,0.00,0.00,
"USC00507465","1927-06-10",68.00,32.00,0.00,0.00,
"USC00507465","1927-06-11",71.96,28.04,0.00,0.00,
"USC00507465","1927-06-12",84.02,28.04,0.00,0.00,
"USC00507465","1927-06-13",73.94,42.08,114.00,0.00,
"USC00507465","1927-06-14",68.00,42.08,13.00,0.00,
"USC00507465","1927-06-15",68.00,44.06,25.00,0.00,
"USC00507465","1927-06-16",64.04,42.08,102.00,0.00,
"USC00507465","1927-06-17",68.00,42.08,0.00,0.00,
"USC00507465","1927-06-18",64.04,33.98,0.00,0.00,
"USC00507465","1927-06-19",78.08,42.08,0.00,0.00,
"USC00507465","1927-06-20",68.00,37.94,0.00,0.00,
"USC00507465","1927-06-21",78.08,35.96,0.00,0.00,
"USC00507465","1927-06-22",71.96,46.04,292.00,0.00,
"USC00507465","1927-06-23",82.04,44.06,0.00,0.00,
"USC00507465","1927-06-24",80.06,37.94,0.00,0.00,
"USC00507465","1927-06-25",82.04,35.96,0.00,0.00,
"USC00507465","1927-06-26",75.92,46.04,0.00,0.00,
"USC00507465","1927-06-27",75.92,44.06,0.00,0.00,
"USC00507465","1927-06-28",71.96,42.08,0.00,0.00,
"USC00507465","1927-06-29",71.96,42.08,0.00,0.00,
"USC00507465","1927-06-30",84.02,42.08,0.00,0.00,
"USC00507465","1927-07-01",75.92,33.08,0.00,0.00,
"USC00507465","1927-07-02",,,0.00,0.00,
"USC00507465","1927-07-03",,42.08,0.00,0.00,
"USC00507465","1927-07-04",87.98,44.06,0.00,0.00,
"USC00507465","1927-07-05",84.02,53.06,178.00,0.00,
"USC00507465","1927-07-06",89.06,46.04,0.00,0.00,
"USC00507465","1927-07-07",95.00,39.92,0.00,0.00,
"USC00507465","1927-07-08",68.00,42.08,0.00,0.00,
"USC00507465","1927-07-09",64.94,42.08,0.00,0.00,
"USC00507465","1927-07-10",66.02,50.00,0.00,0.00,
"USC00507465","1927-07-11",64.04,44.96,0.00,0.00,
"USC00507465","1927-07-12",71.06,50.00,279.00,0.00,
"USC00507465","1927-07-13",75.92,50.00,0.00,0.00,
"USC00507465","1927-07-14",80.96,46.04,0.00,0.00,
"USC00507465","1927-07-15",84.92,42.08,0.00,0.00,
"USC00507465","1927-07-16",,37.04,0.00,0.00,
"USC00507465","1927-07-17",,,0.00,0.00,
"USC00507465","1927-07-18",,,0.00,0.00,
"USC00507465","1927-07-19",73.94,44.06,0.00,0.00,
"USC00507465","1927-07-20",69.98,48.02,25.00,0.00,
"USC00507465","1927-07-21",71.96,48.92,0.00,0.00,
"USC00507465","1927-07-22",69.98,46.94,254.00,0.00,
"USC00507465","1927-07-23",69.98,46.94,0.00,0.00,
"USC00507465","1927-07-24",69.98,35.96,0.00,0.00,
"USC00507465","1927-07-25",71.96,35.96,0.00,0.00,
"USC00507465","1927-07-26",84.02,35.96,0.00,0.00,
"USC00507465","1927-07-27",84.02,46.94,0.00,0.00,
"USC00507465","1927-07-28",80.96,37.94,0.00,0.00,
"USC00507465","1927-07-29",80.06,39.02,0.00,0.00,
"USC00507465","1927-07-30",77.00,46.04,0.00,0.00,
"USC00507465","1927-07-31",75.02,37.94,0.00,0.00,
"USC00507465","1927-08-01",82.94,39.02,0.00,0.00,
"USC00507465","1927-08-02",73.94,33.98,0.00,0.00,
"USC00507465","1927-08-03",68.00,33.08,0.00,0.00,
"USC00507465","1927-08-04",,,0.00,0.00,
"USC00507465","1927-08-05",75.92,41.00,0.00,0.00,
"USC00507465","1927-08-06",71.06,41.00,0.00,0.00,
"USC00507465","1927-08-07",77.00,41.00,0.00,0.00,
"USC00507465","1927-08-08",84.02,42.08,0.00,0.00,
"USC00507465","1927-08-09",75.92,42.98,0.00,0.00,
"USC00507465","1927-08-10",71.96,53.96,25.00,0.00,
"USC00507465","1927-08-11",71.96,44.96,0.00,0.00,
"USC00507465","1927-08-12",71.96,39.92,0.00,0.00,
"USC00507465","1927-08-13",69.98,42.08,0.00,0.00,
"USC00507465","1927-08-14",75.92,44.96,0.00,0.00,
"USC00507465","1927-08-15",73.04,46.04,0.00,0.00,
"USC00507465","1927-08-16",87.98,37.04,0.00,0.00,
"USC00507465","1927-08-17",89.96,35.96,0.00,0.00,
"USC00507465","1927-08-18",89.96,37.94,0.00,0.00,
"USC00507465","1927-08-19",93.02,39.92,0.00,0.00,
"USC00507465","1927-08-20",80.96,37.94,0.00,0.00,
"USC00507465","1927-08-21",78.98,35.96,0.00,0.00,
"USC00507465","1927-08-22",71.96,39.02,0.00,0.00,
"USC00507465","1927-08-23",68.00,51.08,381.00,0.00,
"USC00507465","1927-08-24",69.08,42.08,0.00,0.00,
"USC00507465","1927-08-25",64.04,44.96,584.00,0.00,
"USC00507465","1927-08-26",55.94,37.04,381.00,0.00,
"USC00507465","1927-08-27",69.08,37.94,0.00,0.00,
"USC00507465","1927-08-28",62.96,46.94,102.00,0.00,
"USC00507465","1927-08-29",62.06,48.02,127.00,0.00,
"USC00507465","1927-08-30",62.06,46.04,0.00,0.00,
"USC00507465","1927-08-31",69.98,44.96,0.00,0.00,
"USC00507465","1927-09-01",68.00,41.00,51.00,0.00,
"USC00507465","1927-09-02",60.08,42.98,686.00,0.00,
"USC00507465","1927-09-03",,,0.00,0.00,
"USC00507465","1927-09-04",64.04,35.96,1207.00,0.00,
"USC00507465","1927-09-05",57.02,33.08,0.00,0.00,
"USC00507465","1927-09-06",59.00,35.06,0.00,0.00,
"USC00507465","1927-09-07",57.02,46.04,356.00,0.00,
"USC00507465","1927-09-08",59.00,46.94,226.00,0.00,
"USC00507465","1927-09-09",62.06,46.94,287.00,0.00,
"USC00507465","1927-09-10",,28.04,0.00,0.00,
"USC00507465","1927-09-11",73.94,30.02,25.00,0.00,
"USC00507465","1927-09-12",62.06,28.94,0.00,0.00,
"USC00507465","1927-09-13",66.02,28.04,0.00,0.00,
"USC00507465","1927-09-14",48.92,33.08,533.00,0.00,
"USC00507465","1927-09-15",,39.92,102.00,0.00,
"USC00507465","1927-09-16",64.94,33.98,0.00,0.00,
"USC00507465","1927-09-17",62.06,44.06,0.00,0.00,
"USC00507465","1927-09-18",62.96,44.96,0.00,0.00,
"USC00507465","1927-09-19",69.98,46.94,0.00,0.00,
"USC00507465","1927-09-20",64.94,33.08,0.00,0.00,
"USC00507465","1927-09-21",71.06,33.08,0.00,0.00,
"USC00507465","1927-09-22",71.96,30.92,0.00,0.00,
"USC00507465","1927-09-23",62.06,37.94,0.00,0.00,
"USC00507465","1927-09-24",64.94,39.92,0.00,0.00,
"USC00507465","1927-09-25",55.04,44.96,787.00,0.00,
"USC00507465","1927-09-26",55.94,37.94,686.00,0.00,
"USC00507465","1927-09-27",57.02,37.04,610.00,0.00,
"USC00507465","1927-09-28",57.02,30.02,229.00,0.00,
"USC00507465","1927-09-29",60.98,21.92,0.00,0.00,
"USC00507465","1927-09-30",51.98,23.00,0.00,0.00,
"USC00507465","1927-10-01",60.98,21.02,0.00,0.00,
"USC00507465","1927-10-02",60.98,35.06,0.00,0.00,
"USC00507465","1927-10-03",51.08,30.92,0.00,0.00,
"USC00507465","1927-10-04",44.96,17.06,0.00,0.00,
"USC00507465","1927-10-05",46.04,17.06,0.00,0.00,
"USC00507465","1927-10-06",48.92,26.06,5.00,5.00,
"USC00507465","1927-10-07",48.02,32.00,56.00,0.00,
"USC00507465","1927-10-08",59.00,33.98,0.00,0.00,
"USC00507465","1927-10-09",53.06,37.04,33.00,33.00,25.00
"USC00507465","1927-10-10",57.92,33.08,30.00,0.00,
"USC00507465","1927-10-11",57.02,32.00,3.00,0.00,
"USC00507465","1927-10-12",48.92,30.92,0.00,0.00,
"USC00507465","1927-10-13",39.92,30.02,409.00,132.00,127.00
"USC00507465","1927-10-14",41.00,32.00,521.00,0.00,
"USC00507465","1927-10-15",55.04,33.98,122.00,0.00,
"USC00507465","1927-10-16",46.94,33.98,249.00,0.00,
"USC00507465","1927-10-17",48.02,30.92,183.00,0.00,
"USC00507465","1927-10-18",46.94,28.04,13.00,0.00,
"USC00507465","1927-10-19",42.98,21.92,0.00,0.00,
"USC00507465","1927-10-20",46.04,26.06,191.00,221.00,229.00
"USC00507465","1927-10-21",46.04,30.92,130.00,0.00,127.00
"USC00507465","1927-10-22",44.96,33.08,107.00,0.00,51.00
"USC00507465","1927-10-23",44.96,32.00,25.00,0.00,
"USC00507465","1927-10-24",50.00,28.94,0.00,0.00,
"USC00507465","1927-10-25",44.06,30.92,10.00,0.00,
"USC00507465","1927-10-26",44.06,33.08,53.00,0.00,
"USC00507465","1927-10-27",46.04,28.94,0.00,0.00,
"USC00507465","1927-10-28",44.96,28.04,0.00,0.00,
"USC00507465","1927-10-29",39.92,15.98,0.00,0.00,
"USC00507465","1927-10-30",39.92,8.96,0.00,0.00,
"USC00507465","1927-10-31",35.96,21.92,165.00,191.00,
"USC00507465","1927-11-01",33.98,21.02,,,178.00
"USC00507465","1927-11-02",44.96,23.00,,,152.00
"USC00507465","1927-11-03",41.00,28.04,,,102.00
"USC00507465","1927-11-04",44.96,28.04,,,76.00
"USC00507465","1927-11-05",39.02,26.96,,,51.00
"USC00507465","1927-11-06",39.02,21.02,,,51.00
"USC00507465","1927-11-07",30.02,-0.04,,,51.00
"USC00507465","1927-11-08",28.94,3.92,,,51.00
"USC00507465","1927-11-09",39.02,1.04,,,51.00
"USC00507465","1927-11-10",26.96,8.06,,,51.00
"USC00507465","1927-11-11",28.04,-2.02,,,51.00
"USC00507465","1927-11-12",24.98,-4.00,,,51.00
"USC00507465","1927-11-13",19.94,-5.08,,,51.00
"USC00507465","1927-11-14",10.04,-5.08,,,51.00
"USC00507465","1927-11-15",12.02,-5.98,,,51.00
"USC00507465","1927-11-16",10.04,-7.06,,,51.00
"USC00507465","1927-11-17",10.04,-5.98,,,51.00
"USC00507465","1927-11-18",6.98,-11.92,,,51.00
"USC00507465","1927-11-19",10.94,-13.00,,,51.00
"USC00507465","1927-11-20",28.04,10.94,76.00,127.00,178.00
"USC00507465","1927-11-21",30.02,17.96,,216.00,381.00
"USC00507465","1927-11-22",24.98,8.96,,,381.00
"USC00507465","1927-11-23",19.04,10.94,,,381.00
"USC00507465","1927-11-24",15.08,-16.96,,,381.00
"USC00507465","1927-11-25",3.92,-11.92,,,381.00
"USC00507465","1927-11-26",3.92,-14.98,,,381.00
"USC00507465","1927-11-27",-2.02,-22.00,,,381.00
"USC00507465","1927-11-28",-4.00,-27.94,,,381.00
"USC00507465","1927-11-29",1.04,-9.04,,,381.00
"USC00507465","1927-11-30",6.98,-4.00,51.00,102.00,457.00
"USC00507465","1927-12-01",10.04,-18.94,,0.00,457.00
"USC00507465","1927-12-02",8.96,-16.96,152.00,114.00,584.00
"USC00507465","1927-12-03",15.08,-0.04,,0.00,584.00
"USC00507465","1927-12-04",14.00,-9.94,,0.00,559.00
"USC00507465","1927-12-05",-2.02,-14.98,,0.00,559.00
"USC00507465","1927-12-06",-5.98,-29.92,,0.00,559.00
"USC00507465","1927-12-07",-22.00,-32.08,,0.00,559.00
"USC00507465","1927-12-08",-2.92,-27.94,,0.00,559.00
"USC00507465","1927-12-09",5.00,-9.94,,0.00,559.00
"USC00507465","1927-12-10",28.04,3.02,,0.00,559.00
"USC00507465","1927-12-11",26.96,10.04,,0.00,559.00
"USC00507465","1927-12-12",26.96,-11.92,,0.00,559.00
"USC00507465","1927-12-13",10.94,-13.00,,0.00,559.00
"USC00507465","1927-12-14",19.94,8.06,76.00,36.00,559.00
"USC00507465","1927-12-15",19.94,6.08,,0.00,559.00
"USC00507465","1927-12-16",30.02,19.94,,0.00,508.00
"USC00507465","1927-12-17",30.92,1.94,,0.00,508.00
"USC00507465","1927-12-18",10.04,-9.94,,0.00,508.00
"USC00507465","1927-12-19",24.08,-0.04,330.00,152.00,660.00
"USC00507465","1927-12-20",35.06,24.08,76.00,178.00,787.00
"USC00507465","1927-12-21",39.92,30.02,160.00,305.00,940.00
"USC00507465","1927-12-22",35.06,30.02,30.00,102.00,991.00
"USC00507465","1927-12-23",35.06,12.02,,0.00,991.00
"USC00507465","1927-12-24",21.02,-5.08,,0.00,991.00
"USC00507465","1927-12-25",17.96,-0.04,152.00,381.00,1168.00
"USC00507465","1927-12-26",5.00,-20.02,,0.00,1168.00
"USC00507465","1927-12-27",-9.94,-31.00,,0.00,1168.00
"USC00507465","1927-12-28",-16.96,-29.92,,0.00,1168.00
"USC00507465","1927-12-29",-5.08,-25.06,,0.00,1168.00
"USC00507465","1927-12-30",-11.92,-25.06,,0.00,1168.00
"USC00507465","1927-12-31",-5.98,-25.06,,0.00,1168.00
"USC00507465","1928-01-01",-4.00,-18.04,,0.00,1168.00
"USC00507465","1928-01-02",-5.08,-14.98,,0.00,
"USC00507465","1928-01-03",21.02,-5.08,127.00,152.00,1270.00
"USC00507465","1928-01-04",30.02,21.02,102.00,127.00,1219.00
"USC00507465","1928-01-05",35.96,30.02,13.00,0.00,
"USC00507465","1928-01-06",35.96,30.02,76.00,102.00,1245.00
"USC00507465","1928-01-07",39.92,30.92,,0.00,
"USC00507465","1928-01-08",39.02,28.94,76.00,51.00,1219.00
"USC00507465","1928-01-09",39.92,30.02,13.00,5.00,
"USC00507465","1928-01-10",37.94,26.06,,0.00,
"USC00507465","1928-01-11",35.06,26.96,,0.00,
"USC00507465","1928-01-12",35.06,10.04,,0.00,
"USC00507465","1928-01-13",19.94,-9.94,,0.00,
"USC00507465","1928-01-14",30.02,12.02,,0.00,
"USC00507465","1928-01-15",33.08,26.06,104.00,152.00,1372.00
"USC00507465","1928-01-16",35.06,28.04,,254.00,1499.00
"USC00507465","1928-01-17",33.98,-9.94,,0.00,1499.00
"USC00507465","1928-01-18",10.04,-9.94,,0.00,1499.00
"USC00507465","1928-01-19",19.94,-5.08,,0.00,1499.00
"USC00507465","1928-01-20",24.08,6.08,,0.00,1499.00
"USC00507465","1928-01-21",12.02,-9.94,,0.00,1499.00
"USC00507465","1928-01-22",-0.04,-16.06,,0.00,1499.00
"USC00507465","1928-01-23",17.96,-11.92,,0.00,1499.00
"USC00507465","1928-01-24",19.94,10.04,,0.00,1499.00
"USC00507465","1928-01-25",24.98,14.00,,0.00,1499.00
"USC00507465","1928-01-26",24.98,19.94,203.00,305.00,1626.00
"USC00507465","1928-01-27",28.04,-5.98,,0.00,
"USC00507465","1928-01-28",8.06,-11.92,,0.00,
"USC00507465","1928-01-29",1.94,-16.06,,0.00,
"USC00507465","1928-01-30",3.92,-18.04,,0.00,
"USC00507465","1928-01-31",19.94,3.92,,0.00,
"USC00507465","1928-02-01",26.96,15.98,0.00,0.00,1626.00
"USC00507465","1928-02-02",30.92,17.96,0.00,0.00,
"USC00507465","1928-02-03",26.06,12.92,0.00,0.00,
"USC00507465","1928-02-04",28.04,17.96,191.00,229.00,1778.00
"USC00507465","1928-02-05",30.02,-0.04,0.00,0.00,
"USC00507465","1928-02-06",30.92,19.04,229.00,279.00,1930.00
"USC00507465","1928-02-07",33.08,26.96,241.00,254.00,2032.00
"USC00507465","1928-02-08",37.04,32.00,107.00,0.00,1981.00
"USC00507465","1928-02-09",39.02,24.98,0.00,0.00,1778.00
"USC00507465","1928-02-10",32.00,-2.02,0.00,0.00,
"USC00507465","1928-02-11",28.94,,89.00,102.00,1880.00
"USC00507465","1928-02-12",30.02,-2.92,0.00,0.00,
"USC00507465","1928-02-13",35.06,-2.92,0.00,0.00,
"USC00507465","1928-02-14",42.08,32.00,0.00,0.00,1727.00
"USC00507465","1928-02-15",44.06,32.00,0.00,0.00,1626.00
"USC00507465","1928-02-16",39.92,24.98,0.00,0.00,1524.00
"USC00507465","1928-02-17",42.08,17.96,0.00,0.00,1524.00
"USC00507465","1928-02-18",33.98,8.06,0.00,0.00,
"USC00507465","1928-02-19",24.98,-0.04,0.00,0.00,
"USC00507465","1928-02-20",19.94,-5.08,0.00,0.00,
"USC00507465","1928-02-21",30.02,-7.06,0.00,0.00,
"USC00507465","1928-02-22",30.02,-9.94,0.00,0.00,
"USC00507465","1928-02-23",28.04,-11.92,0.00,0.00,
"USC00507465","1928-02-24",23.00,-5.08,0.00,0.00,
"USC00507465","1928-02-25",35.96,21.02,0.00,0.00,
"USC00507465","1928-02-26",37.94,8.96,0.00,0.00,
"USC00507465","1928-02-27",39.92,1.94,0.00,0.00,
"USC00507465","1928-02-28",39.92,3.02,0.00,0.00,
"USC00507465","1928-02-29",35.06,,0.00,0.00,
"USC00507465","1928-03-01",39.02,1.04,0.00,0.00,1524.00
"USC00507465","1928-03-02",30.02,-4.00,0.00,0.00,
"USC00507465","1928-03-03",32.00,-0.04,0.00,0.00,
"USC00507465","1928-03-04",35.06,19.04,127.00,152.00,1676.00
"USC00507465","1928-03-05",24.98,-9.94,0.00,0.00,1626.00
"USC00507465","1928-03-06",15.98,-18.94,0.00,0.00,
"USC00507465","1928-03-07",15.98,-23.08,0.00,0.00,
"USC00507465","1928-03-08",17.96,-11.92,0.00,0.00,
"USC00507465","1928-03-09",19.04,1.94,89.00,127.00,1702.00
"USC00507465","1928-03-10",23.00,1.94,51.00,51.00,
"USC00507465","1928-03-11",24.98,-13.00,0.00,0.00,
"USC00507465","1928-03-12",33.08,-5.98,0.00,0.00,
"USC00507465","1928-03-13",32.00,6.08,64.00,102.00,1753.00
"USC00507465","1928-03-14",35.06,26.96,89.00,76.00,1626.00
"USC00507465","1928-03-15",37.04,30.02,81.00,0.00,1524.00
"USC00507465","1928-03-16",39.92,30.02,79.00,51.00,1524.00
"USC00507465","1928-03-17",39.92,28.94,61.00,0.00,1473.00
"USC00507465","1928-03-18",39.92,8.06,0.00,0.00,
"USC00507465","1928-03-19",44.06,10.04,89.00,102.00,1575.00
"USC00507465","1928-03-20",35.06,26.06,165.00,203.00,1676.00
"USC00507465","1928-03-21",42.08,24.98,0.00,0.00,1575.00
"USC00507465","1928-03-22",44.06,-4.00,0.00,0.00,
"USC00507465","1928-03-23",39.92,-5.08,0.00,0.00,
"USC00507465","1928-03-24",44.96,-0.04,0.00,0.00,
"USC00507465","1928-03-25",42.98,21.92,127.00,152.00,1727.00
"USC00507465","1928-03-26",42.98,19.94,38.00,51.00,
"USC00507465","1928-03-27",44.96,21.92,0.00,0.00,1626.00
"USC00507465","1928-03-28",41.00,32.00,23.00,0.00,1524.00
"USC00507465","1928-03-29",39.92,21.02,41.00,51.00,1524.00
"USC00507465","1928-03-30",42.08,8.06,0.00,0.00,
"USC00507465","1928-03-31",42.98,1.94,0.00,0.00,
"USC00507465","1928-04-01",44.96,-4.00,0.00,0.00,1524.00
"USC00507465","1928-04-02",42.98,-2.92,0.00,0.00,
"USC00507465","1928-04-03",39.92,5.00,0.00,0.00,
"USC00507465","1928-04-04",39.02,15.08,0.00,0.00,1499.00
"USC00507465","1928-04-05",44.96,17.06,0.00,0.00,1473.00
"USC00507465","1928-04-06",39.92,28.04,127.00,76.00,1524.00
"USC00507465","1928-04-07",39.92,26.96,0.00,0.00,1473.00
"USC00507465","1928-04-08",44.96,12.02,0.00,0.00,1422.00
"USC00507465","1928-04-09",44.96,10.94,0.00,0.00,
"USC00507465","1928-04-10",44.96,17.96,0.00,0.00,1372.00
"USC00507465","1928-04-11",46.04,15.98,0.00,0.00,1270.00
"USC00507465","1928-04-12",46.04,15.98,0.00,0.00,1219.00
"USC00507465","1928-04-13",50.00,28.04,0.00,0.00,1168.00
"USC00507465","1928-04-14",50.00,19.94,0.00,0.00,1143.00
"USC00507465","1928-04-15",50.00,17.96,0.00,0.00,1092.00
"USC00507465","1928-04-16",46.04,8.96,0.00,0.00,
"USC00507465","1928-04-17",41.00,17.06,0.00,0.00,
"USC00507465","1928-04-18",48.02,26.06,0.00,0.00,
"USC00507465","1928-04-19",44.96,30.92,0.00,0.00,1067.00
"USC00507465","1928-04-20",44.96,32.00,0.00,0.00,
"USC00507465","1928-04-21",48.92,30.02,0.00,0.00,
"USC00507465","1928-04-22",46.04,32.00,23.00,0.00,
"USC00507465","1928-04-23",44.96,28.94,25.00,0.00,1041.00
"USC00507465","1928-04-24",50.00,32.00,0.00,0.00,1016.00
"USC00507465","1928-04-25",48.02,33.08,107.00,0.00,991.00
"USC00507465","1928-04-26",44.96,30.92,163.00,0.00,965.00
"USC00507465","1928-04-27",50.00,17.06,0.00,0.00,965.00
"USC00507465","1928-04-28",51.08,15.98,0.00,0.00,914.00
"USC00507465","1928-04-29",50.00,26.96,0.00,0.00,889.00
"USC00507465","1928-04-30",53.96,21.02,0.00,0.00,864.00
"USC00507465","1928-05-01",50.00,30.92,13.00,,864.00
"USC00507465","1928-05-02",50.00,30.92,,,
"USC00507465","1928-05-03",50.00,32.00,,,813.00
"USC00507465","1928-05-04",55.94,30.92,,,762.00
"USC00507465","1928-05-05",55.04,32.00,58.00,,
"USC00507465","1928-05-06",48.02,32.00,10.00,,711.00
"USC00507465","1928-05-07",53.96,28.94,,,686.00
"USC00507465","1928-05-08",53.96,28.04,,,610.00
"USC00507465","1928-05-09",55.04,26.96,,,457.00
"USC00507465","1928-05-10",55.94,24.98,,,356.00
"USC00507465","1928-05-11",60.08,28.94,,,305.00
"USC00507465","1928-05-12",60.08,33.08,,,
"USC00507465","1928-05-13",62.96,26.96,,,254.00
"USC00507465","1928-05-14",57.02,33.08,508.00,51.00,305.00
"USC00507465","1928-05-15",51.98,30.02,257.00,,254.00
"USC00507465","1928-05-16",55.04,33.08,,,203.00
"USC00507465","1928-05-17",53.96,28.94,,,
"USC00507465","1928-05-18",62.06,33.98,10.00,,152.00
"USC00507465","1928-05-19",59.00,33.98,,,127.00
"USC00507465","1928-05-20",57.02,28.94,,,76.00
"USC00507465","1928-05-21",57.02,26.96,,,
"USC00507465","1928-05-22",57.02,28.94,,,
"USC00507465","1928-05-23",51.98,35.06,33.00,,
"USC00507465","1928-05-24",57.92,24.98,,,
"USC00507465","1928-05-25",64.04,24.98,,,
"USC00507465","1928-05-26",64.04,26.96,,,
"USC00507465","1928-05-27",71.06,37.04,,,
"USC00507465","1928-05-28",69.08,28.94,,,
"USC00507465","1928-05-29",69.98,39.02,38.00,,
"USC00507465","1928-05-30",57.02,35.06,8.00,,
"USC00507465","1928-05-31",64.94,26.96,,,
"USC00507465","1928-06-01",73.94,39.92,3.00,0.00,
"USC00507465","1928-06-02",60.08,37.94,0.00,0.00,
"USC00507465","1928-06-03",60.08,41.00,86.00,0.00,
"USC00507465","1928-06-04",53.06,35.96,135.00,0.00,
"USC00507465","1928-06-05",55.04,37.94,0.00,0.00,
"USC00507465","1928-06-06",71.96,37.94,0.00,0.00,
"USC00507465","1928-06-07",80.06,46.94,0.00,0.00,
"USC00507465","1928-06-08",75.92,35.96,0.00,0.00,
"USC00507465","1928-06-09",84.02,35.96,0.00,0.00,
"USC00507465","1928-06-10",84.02,35.96,0.00,0.00,
"USC00507465","1928-06-11",84.02,35.06,0.00,0.00,
"USC00507465","1928-06-12",62.96,30.92,0.00,0.00,
"USC00507465","1928-06-13",68.00,39.92,0.00,0.00,
"USC00507465","1928-06-14",77.00,37.94,0.00,0.00,
"USC00507465","1928-06-15",62.06,39.92,0.00,0.00,
"USC00507465","1928-06-16",62.06,35.96,0.00,0.00,
"USC00507465","1928-06-17",68.00,28.94,0.00,0.00,
"USC00507465","1928-06-18",77.00,33.98,0.00,0.00,
"USC00507465","1928-06-19",80.06,35.06,0.00,0.00,
"USC00507465","1928-06-20",80.06,35.96,0.00,0.00,
"USC00507465","1928-06-21",78.98,35.96,0.00,0.00,
"USC00507465","1928-06-22",69.98,42.08,0.00,0.00,
"USC00507465","1928-06-23",75.02,32.00,0.00,0.00,
"USC00507465","1928-06-24",77.00,41.00,0.00,0.00,
"USC00507465","1928-06-25",77.00,44.06,0.00,0.00,
"USC00507465","1928-06-26",71.06,39.92,0.00,0.00,
"USC00507465","1928-06-27",80.06,33.98,0.00,0.00,
"USC00507465","1928-06-28",86.00,39.02,0.00,0.00,
"USC00507465","1928-06-29",78.08,35.96,0.00,0.00,
"USC00507465","1928-06-30",71.96,41.00,0.00,0.00,
"USC00507465","1928-07-01",86.00,37.94,0.00,0.00,
"USC00507465","1928-07-02",86.00,33.98,0.00,0.00,
"USC00507465","1928-07-03",89.96,39.92,0.00,0.00,
"USC00507465","1928-07-04",87.98,39.02,0.00,0.00,
"USC00507465","1928-07-05",69.08,50.00,0.00,0.00,
"USC00507465","1928-07-06",62.06,46.94,0.00,0.00,
"USC00507465","1928-07-07",69.98,48.02,0.00,0.00,
"USC00507465","1928-07-08",64.94,42.08,0.00,0.00,
"USC00507465","1928-07-09",69.08,44.06,0.00,0.00,
"USC00507465","1928-07-10",60.08,44.96,33.00,0.00,
"USC00507465","1928-07-11",66.02,44.96,66.00,0.00,
"USC00507465","1928-07-12",66.02,44.96,97.00,0.00,
"USC00507465","1928-07-13",64.04,46.94,10.00,0.00,
"USC00507465","1928-07-14",69.08,35.06,0.00,0.00,
"USC00507465","1928-07-15",71.96,48.02,0.00,0.00,
"USC00507465","1928-07-16",73.94,42.08,0.00,0.00,
"USC00507465","1928-07-17",69.98,48.92,0.00,0.00,
"USC00507465","1928-07-18",69.98,48.92,0.00,0.00,
"USC00507465","1928-07-19",60.08,48.92,0.00,0.00,
"USC00507465","1928-07-20",62.96,46.04,104.00,0.00,
"USC00507465","1928-07-21",66.92,33.08,0.00,0.00,
"USC00507465","1928-07-22",69.98,32.00,0.00,0.00,
"USC00507465","1928-07-23",64.04,35.06,0.00,0.00,
"USC00507465","1928-07-24",68.00,30.02,0.00,0.00,
"USC00507465","1928-07-25",82.04,35.06,0.00,0.00,
"USC00507465","1928-07-26",89.06,37.04,0.00,0.00,
"USC00507465","1928-07-27",89.96,37.04,0.00,0.00,
"USC00507465","1928-07-28",75.02,44.96,0.00,0.00,
"USC00507465","1928-07-29",75.02,50.00,0.00,0.00,
"USC00507465","1928-07-30",69.08,44.96,0.00,0.00,
"USC00507465","1928-07-31",68.00,35.06,0.00,0.00,
"USC00507465","1928-08-01",73.94,46.04,0.00,0.00,
"USC00507465","1928-08-02",69.98,46.94,0.00,0.00,
"USC00507465","1928-08-03",68.00,37.04,10.00,0.00,
"USC00507465","1928-08-04",64.94,42.98,0.00,0.00,
"USC00507465","1928-08-05",59.00,44.96,61.00,0.00,
"USC00507465","1928-08-06",64.04,39.92,8.00,0.00,
"USC00507465","1928-08-07",66.02,39.02,0.00,0.00,
"USC00507465","1928-08-08",66.92,33.08,0.00,0.00,
"USC00507465","1928-08-09",57.92,41.00,216.00,0.00,
"USC00507465","1928-08-10",60.08,39.92,61.00,0.00,
"USC00507465","1928-08-11",62.06,33.98,0.00,0.00,
"USC00507465","1928-08-12",64.04,39.92,0.00,0.00,
"USC00507465","1928-08-13",69.98,44.96,0.00,0.00,
"USC00507465","1928-08-14",71.06,33.98,0.00,0.00,
"USC00507465","1928-08-15",73.04,35.96,0.00,0.00,
"USC00507465","1928-08-16",69.08,41.00,0.00,0.00,
"USC00507465","1928-08-17",64.04,46.94,0.00,0.00,
"USC00507465","1928-08-18",71.06,30.92,0.00,0.00,
"USC00507465","1928-08-19",75.02,32.00,0.00,0.00,
"USC00507465","1928-08-20",66.02,42.08,0.00,0.00,
"USC00507465","1928-08-21",68.00,37.94,0.00,0.00,
"USC00507465","1928-08-22",69.08,46.04,0.00,0.00,
"USC00507465","1928-08-23",69.98,33.08,0.00,0.00,
"USC00507465","1928-08-24",73.04,33.08,0.00,0.00,
"USC00507465","1928-08-25",64.94,39.02,0.00,0.00,
"USC00507465","1928-08-26",66.02,44.96,0.00,0.00,
"USC00507465","1928-08-27",66.92,35.96,0.00,0.00,
"USC00507465","1928-08-28",68.00,44.06,0.00,0.00,
"USC00507465","1928-08-29",64.94,46.04,0.00,0.00,
"USC00507465","1928-08-30",64.04,35.06,0.00,0.00,
"USC00507465","1928-08-31",75.92,28.94,0.00,0.00,
"USC00507465","1928-09-01",71.06,39.92,0.00,0.00,
"USC00507465","1928-09-02",69.08,37.04,0.00,0.00,